Back to catalog

COSMOS 1163

AliveMilitaryLEO
NORAD 11698·PAYLOAD·🇷🇺 Russia

Launched Feb 11, 1980 from Plesetsk Cosmodrome

Loading…

Next Passes (next 24 hours)

TLE

FreshSource: Space-Track

Epoch: Sep 14, 2026, 11:11 UTC

1 11698U 80012H   26257.46648247 -.00000024  00000-0 -62033-4 0  9995
2 11698  74.0177 263.6321 0045564   9.2146  62.8790 12.39950765108460

Track COSMOS 1163 in real time with AllMySat

Download on the App Store